Location: Unspecified
(0.0000°N, 0.0000°E)
Time: 12:00:22
(UTC+00:00)

Vanguard 2 Rocket - Pass Details

Date: 15 December 2018
Orbit: 556 x 3325 km, 32.9° (Epoch: 25 March)

Event Time Altitude Azimuth Distance (km) Brightness Sun altitude
Rises 18:00:36 0° 256° (WSW) 6,508 13.7 -1.2°
Reaches altitude 10° 18:06:18 10° 242° (WSW) 5,847 13.1 -2.5°
Maximum altitude 18:19:57 23° 196° (SSW) 5,210 11.3 -5.7°
Drops below altitude 10° 18:34:14 10° 150° (SSE) 6,062 11.0 -8.9°
Sets 18:40:27 0° 136° (SE) 6,782 11.1 -10.4°
